Date,TemperatureHighF,TemperatureAvgF,TemperatureLowF,DewpointHighF,DewpointAvgF,DewpointLowF,HumidityHigh,HumidityAvg,HumidityLow,PressureMaxIn,PressureMinIn,WindSpeedMaxMPH,WindSpeedAvgMPH,GustSpeedMaxMPH,PrecipitationSumIn
2013-1-1,10.8,-3.4,-14.2,1.6,-8.1,-18.6,86,80,63,30.87,30.33,14,2,14,0.00
2013-1-2,15.1,-4.0,-16.2,4.4,-9.3,-20.4,86,78,58,30.96,30.82,16,2,16,0.00
2013-1-3,6.3,-7.2,-18.0,-3.7,-12.6,-22.4,85,77,59,31.10,30.94,9,1,9,0.00
2013-1-4,11.6,-2.3,-11.4,2.4,-7.2,-15.2,98,79,65,31.07,30.82,6,1,6,0.00
2013-1-5,14.8,0.8,-9.8,4.9,-4.8,-13.6,87,77,59,31.07,30.89,12,1,12,0.02
2013-1-6,23.2,8.4,-7.3,10.1,0.9,-13.4,85,72,48,31.04,30.59,14,1,14,0.03
2013-1-7,27.0,10.1,-2.4,10.8,1.7,-7.8,84,69,45,30.60,30.36,13,1,13,0.03
2013-1-8,18.2,6.5,-4.9,5.5,-0.7,-11.4,85,73,52,30.93,30.48,13,1,13,0.00
2013-1-9,29.0,11.1,-2.8,15.0,4.7,-6.8,89,76,51,31.01,30.61,13,1,13,0.01
2013-1-10,22.4,12.6,2.4,15.2,6.7,-3.2,89,77,63,30.61,29.90,19,2,19,0.00
2013-1-11,25.5,11.2,1.1,18.6,5.1,-8.1,90,76,44,30.09,29.59,37,8,37,0.00
2013-1-12,2.4,-7.3,-17.5,-3.8,-12.2,-22.2,83,79,73,30.57,30.09,10,2,10,0.00
2013-1-13,6.0,-6.7,-16.9,-2.3,-11.6,-21.7,84,79,64,30.69,30.56,9,1,9,0.01
2013-1-14,7.5,-7.8,-19.2,-4.0,-13.9,-23.7,84,75,54,30.78,30.54,16,2,16,0.00
2013-1-15,3.5,-10.1,-24.5,-3.8,-15.1,-30.1,84,78,68,31.22,30.78,10,2,10,0.00
2013-1-16,13.1,1.5,-10.0,5.5,-3.2,-14.6,88,80,69,31.22,31.02,9,1,9,0.01
2013-1-17,22.7,7.5,-1.8,13.8,3.1,-5.2,90,82,67,31.11,30.93,6,0,6,0.01
2013-1-18,17.3,6.1,-3.8,10.1,1.8,-8.6,89,82,71,30.97,30.83,9,0,9,0.00
2013-1-19,21.4,7.6,-6.1,9.5,1.3,-10.9,87,75,53,31.08,30.89,9,1,9,0.00
2013-1-20,19.6,6.2,-5.7,6.9,-0.8,-10.7,84,73,54,30.94,30.79,9,1,9,0.00
2013-1-21,22.7,8.4,-3.1,8.7,1.0,-8.9,87,72,51,30.92,30.79,12,1,12,0.00
2013-1-22,27.2,9.6,-3.9,11.3,0.0,-10.9,83,66,40,30.97,30.83,14,1,14,0.00
2013-1-23,25.7,10.9,-1.7,7.8,-0.5,-10.4,72,60,33,31.01,30.86,9,1,9,0.00
2013-1-24,32.0,20.0,6.3,28.2,13.8,-4.2,95,77,54,30.87,30.57,15,2,15,0.00
2013-1-25,32.0,28.9,25.7,29.8,27.3,24.5,96,93,88,30.58,30.26,9,1,9,0.04
2013-1-26,37.0,30.3,27.3,30.4,28.1,26.0,96,92,72,30.27,29.83,8,0,8,0.04
2013-1-27,37.7,29.7,17.0,31.7,25.4,12.7,97,85,50,29.92,29.84,21,2,21,0.25
2013-1-28,27.1,21.2,15.9,25.6,18.3,10.7,94,89,72,29.89,29.75,29,3,29,0.01
2013-1-29,15.8,8.3,-0.3,13.4,0.8,-6.3,90,72,47,30.32,29.83,23,6,23,0.00
2013-1-30,15.3,10.6,4.4,10.9,4.5,-4.3,90,76,63,30.53,30.31,23,6,23,0.00
2013-1-31,26.7,18.3,11.9,16.3,12.9,8.6,93,80,55,30.63,30.47,16,3,16,0.02
2013-2-1,29.6,18.2,9.6,19.4,12.4,6.8,91,79,57,30.65,30.49,23,4,23,0.00
2013-2-2,20.5,10.4,-4.4,11.9,5.5,-8.9,90,81,69,30.87,30.64,13,1,13,0.05
2013-2-3,28.2,12.1,3.6,14.5,6.1,-0.9,88,77,53,30.87,30.48,14,1,14,0.00
2013-2-4,30.2,10.9,-3.5,12.3,3.5,-7.4,96,74,37,30.63,30.52,14,3,14,0.01
2013-2-5,26.1,12.4,-1.4,14.8,6.2,-5.3,89,77,58,30.68,30.42,12,1,12,0.00
2013-2-6,29.1,16.8,4.1,25.3,13.4,-0.5,93,86,71,30.44,30.28,10,1,10,0.00
2013-2-7,22.4,11.1,-1.3,16.8,5.1,-6.2,92,77,62,30.56,30.37,14,2,14,0.02
2013-2-8,34.2,18.6,-2.7,20.8,9.0,-9.0,86,67,45,30.56,29.96,29,8,30,0.00
2013-2-9,27.5,20.0,9.9,21.0,12.3,-0.1,91,72,49,29.96,29.58,24,6,24,0.03
2013-2-10,16.9,8.7,-5.4,9.5,2.8,-10.2,88,77,63,30.29,29.82,13,2,13,0.00
2013-2-11,19.1,9.2,-3.9,10.6,3.8,-8.3,92,79,53,30.43,30.21,15,3,15,0.09
2013-2-12,14.1,-0.5,-14.7,4.0,-6.0,-19.1,87,78,62,30.82,30.43,14,3,14,0.00
2013-2-13,27.6,9.1,-5.4,15.7,3.2,-9.8,88,78,57,30.84,30.60,19,3,19,0.00
2013-2-14,26.9,14.1,3.4,14.3,6.7,-0.1,96,73,51,30.61,30.46,22,6,22,0.01
2013-2-15,24.1,16.7,3.0,12.8,6.7,-3.4,79,65,51,30.71,30.51,24,8,24,0.00
2013-2-16,30.4,10.6,-5.0,13.9,2.4,-9.0,88,71,42,30.87,30.65,14,2,14,0.00
2013-2-17,35.4,15.5,-0.1,21.7,4.8,-6.1,92,65,24,30.65,30.04,28,4,30,0.00
2013-2-18,21.2,11.9,-2.8,18.2,1.8,-9.0,89,65,38,30.50,30.04,31,6,31,0.00
2013-2-19,27.5,7.8,-11.6,7.8,-3.0,-16.6,85,63,26,30.61,30.22,15,2,15,0.00
2013-2-20,29.7,16.2,2.8,20.8,9.7,-4.3,93,76,46,30.22,29.77,14,2,14,0.01
2013-2-21,26.9,17.6,4.7,15.8,11.5,0.3,92,78,55,30.08,29.77,20,6,20,0.13
2013-2-22,20.9,8.4,-2.1,15.4,2.9,-6.2,88,78,55,30.44,30.08,15,3,15,0.04
2013-2-23,18.6,5.2,-10.4,12.1,1.1,-14.8,99,83,72,30.47,30.14,11,1,11,0.02
2013-2-24,22.2,8.9,-4.3,12.8,3.4,-8.2,95,78,54,30.40,30.10,15,3,15,0.01
2013-2-25,17.2,1.2,-16.2,7.4,-4.0,-20.9,88,79,62,30.66,30.39,11,1,11,0.00
2013-2-26,18.7,8.6,-2.6,10.2,2.5,-7.2,88,76,63,30.54,30.25,22,5,22,0.00
2013-2-27,20.4,3.6,-12.1,6.7,-3.9,-16.9,86,71,48,30.83,30.54,18,4,18,0.01
2013-2-28,26.1,7.7,-13.3,12.4,-0.2,-17.9,92,71,45,30.98,30.82,20,4,20,0.00
2013-3-1,33.5,25.4,15.7,20.2,16.1,9.2,83,68,54,30.83,30.52,29,11,29,0.00
2013-3-2,31.1,18.5,4.1,21.5,12.7,0.4,92,78,66,30.75,30.56,13,1,13,0.00
2013-3-3,37.4,25.0,11.9,26.9,19.2,7.0,95,79,53,30.56,29.98,24,3,24,0.00
2013-3-4,33.9,22.5,-1.4,28.0,17.5,-7.8,95,82,50,30.40,29.82,29,6,29,0.16
2013-3-5,22.5,5.6,-11.1,8.0,-2.2,-15.8,88,71,42,30.85,30.39,15,1,15,0.06
2013-3-6,40.8,17.2,1.8,19.3,7.4,-4.2,84,67,31,30.83,30.35,16,2,16,0.00
2013-3-7,42.9,24.5,9.6,19.9,10.8,3.7,85,59,25,30.37,30.15,19,4,22,0.00
2013-3-8,40.4,26.7,13.4,27.3,17.6,4.5,93,70,36,30.22,29.76,24,4,24,0.00
2013-3-9,27.0,22.1,16.1,22.4,15.6,10.2,91,76,60,30.16,29.69,24,8,24,0.02
2013-3-10,30.2,19.8,3.4,15.6,7.1,-4.6,81,59,33,30.46,30.15,26,8,26,0.00
2013-3-11,35.2,19.1,0.7,23.4,11.5,-3.2,90,74,46,30.51,30.37,22,4,22,0.00
2013-3-12,38.9,29.3,17.3,25.2,20.4,12.8,100,71,47,30.43,30.32,21,6,21,0.06
2013-3-13,43.4,26.8,12.6,26.1,16.4,7.9,91,68,30,30.58,30.42,15,3,16,0.00
2013-3-14,40.7,28.0,15.8,25.5,18.3,11.1,87,68,49,30.63,30.47,13,1,13,0.00
2013-3-15,49.1,31.5,17.4,25.3,19.5,12.0,84,63,29,30.53,30.14,20,2,20,0.00
2013-3-16,37.3,31.2,24.6,31.6,27.6,20.5,95,87,67,30.15,29.87,25,4,25,0.04
2013-3-17,38.2,28.3,23.6,28.9,19.9,3.4,100,74,36,29.99,29.76,40,7,40,0.22
2013-3-18,31.4,26.1,20.8,17.1,9.4,3.2,74,50,37,30.15,29.93,32,9,32,0.00
2013-3-19,36.8,27.9,12.1,11.3,3.1,-10.2,52,36,14,30.39,30.14,25,9,25,0.00
2013-3-20,39.2,20.6,4.0,27.0,9.1,-7.1,94,63,32,30.48,30.17,34,2,34,0.00
2013-3-21,34.3,25.6,9.9,29.2,22.2,4.4,96,87,66,30.20,29.72,40,4,40,0.15
2013-3-22,34.1,17.3,-0.1,14.7,4.6,-4.1,92,62,26,30.10,29.91,31,4,35,0.10
2013-3-23,20.0,11.6,-1.0,14.8,3.5,-8.3,88,70,47,30.40,29.91,22,9,22,0.00
2013-3-24,16.2,2.9,-11.6,7.8,-5.0,-16.5,84,70,51,30.67,30.38,26,5,26,0.00
2013-3-25,26.5,4.8,-14.3,3.1,-7.3,-19.6,81,60,30,30.79,30.66,15,3,15,0.00
2013-3-26,42.4,23.3,1.3,22.6,10.9,-6.8,80,61,29,30.76,30.23,31,5,31,0.00
2013-3-27,44.9,32.8,21.4,22.5,17.5,10.7,86,57,25,30.25,30.06,25,4,25,0.00
2013-3-28,42.7,29.7,15.7,26.9,17.7,9.4,79,62,43,30.28,30.15,14,2,14,0.00
2013-3-29,44.4,33.5,22.0,29.5,24.6,15.7,93,71,47,30.33,30.20,33,5,33,0.00
2013-3-30,47.7,35.3,25.4,27.8,23.4,18.5,91,65,34,30.28,30.11,23,4,24,0.00
2013-3-31,47.6,32.4,17.5,24.5,18.8,12.4,84,60,30,30.24,30.10,15,4,15,0.00
2013-4-1,44.0,33.7,23.5,32.4,23.7,17.0,92,68,38,30.17,29.93,23,3,23,0.05
2013-4-2,43.7,32.4,23.0,27.3,21.0,12.4,93,65,29,30.05,29.85,26,5,26,0.00
2013-4-3,44.2,31.1,18.9,28.6,20.5,12.9,94,69,30,30.31,30.04,22,4,22,0.05
2013-4-4,48.9,33.4,18.7,25.4,19.6,13.9,82,59,30,30.36,30.20,15,3,15,0.00
2013-4-5,49.5,34.8,23.7,32.5,24.6,17.4,95,69,30,30.22,29.90,29,4,29,0.00
2013-4-6,48.9,34.6,24.0,34.5,24.8,13.4,96,73,27,30.05,29.97,22,5,22,0.14
2013-4-7,46.4,34.9,26.6,33.2,25.9,16.1,96,73,34,29.99,29.78,37,3,37,0.11
2013-4-8,47.7,35.4,27.5,31.9,27.0,16.6,93,75,32,29.80,29.35,38,6,38,0.03
2013-4-9,34.7,26.3,16.0,29.9,24.2,13.7,96,91,82,29.93,29.38,29,7,29,0.13
2013-4-10,29.7,17.5,5.9,19.1,11.1,3.1,91,77,54,30.27,29.93,29,7,29,0.04
2013-4-11,40.2,27.2,15.1,27.4,19.7,8.9,91,75,48,30.25,30.03,26,5,26,0.05
2013-4-12,44.1,31.0,24.2,30.0,23.5,17.4,92,75,39,30.06,29.97,19,4,19,0.02
2013-4-13,48.2,31.2,14.9,31.1,20.3,10.4,94,68,25,30.06,29.58,35,5,35,0.01
2013-4-14,36.4,29.2,21.9,32.6,20.1,0.0,95,71,39,29.76,29.55,27,2,27,0.18
2013-4-15,40.6,32.4,25.1,32.0,27.3,20.7,96,82,65,29.76,29.60,39,5,40,0.14
2013-4-16,50.6,36.2,22.4,25.8,21.2,15.7,91,59,25,29.76,29.56,29,6,29,0.00
2013-4-17,32.9,24.4,11.6,26.7,19.0,4.6,93,80,66,30.05,29.50,33,8,33,0.08
2013-4-18,23.9,14.7,3.9,8.8,2.9,-4.2,83,60,46,30.59,30.05,24,9,24,0.00
2013-4-19,36.7,20.9,1.7,21.1,9.6,-3.0,83,63,41,30.64,30.30,19,4,19,0.00
2013-4-20,42.7,30.0,22.7,29.7,24.4,19.0,95,81,51,30.30,30.02,23,4,23,0.02
2013-4-21,45.7,32.5,16.8,27.3,21.3,12.9,95,67,28,30.28,30.09,23,3,23,0.07
2013-4-22,48.7,37.8,30.1,34.5,24.8,13.1,95,65,26,30.10,29.77,35,7,35,0.09
2013-4-23,32.7,25.9,15.5,28.7,17.3,4.4,100,72,37,30.29,29.80,24,7,24,0.03
2013-4-24,40.0,25.2,11.3,16.4,9.8,3.6,85,55,28,30.42,30.29,20,4,20,0.00
2013-4-25,52.2,34.7,18.6,23.3,15.9,10.8,80,51,22,30.40,30.02,26,3,26,0.00
2013-4-26,52.7,37.2,21.4,22.5,16.6,7.7,80,48,19,30.30,30.09,20,5,20,0.00
2013-4-27,56.9,38.8,21.7,23.1,17.6,8.8,80,48,17,30.34,30.15,21,4,21,0.00
2013-4-28,60.2,41.5,23.3,27.4,20.5,14.5,80,49,19,30.19,29.94,22,4,22,0.00
2013-4-29,61.9,45.8,28.0,29.0,22.9,12.8,81,46,17,29.97,29.66,31,5,31,0.00
2013-4-30,61.3,47.6,28.3,29.4,21.2,12.9,79,41,18,29.69,29.55,38,7,38,0.00
2013-5-1,44.5,33.5,24.9,30.7,24.0,12.0,94,69,43,30.36,29.57,28,8,28,0.12
2013-5-2,41.4,28.3,14.8,14.4,8.9,3.5,75,46,24,30.65,30.35,26,6,26,0.00
2013-5-3,54.4,35.4,16.2,20.8,12.1,1.7,80,45,16,30.58,30.07,20,4,20,0.00
2013-5-4,56.1,39.8,22.2,28.0,18.3,8.8,77,47,16,30.08,29.89,30,4,30,0.00
2013-5-5,54.7,41.2,28.7,31.1,25.2,15.1,92,58,22,30.03,29.91,24,5,24,0.00
2013-5-6,49.0,37.3,33.2,36.5,31.6,28.3,95,81,46,30.02,29.86,23,2,23,0.30
2013-5-7,47.7,37.4,31.7,38.0,32.9,29.8,96,85,53,30.04,29.96,24,3,24,0.22
2013-5-8,41.6,33.2,29.8,32.2,28.9,0.0,95,85,53,30.12,29.95,16,2,16,0.40
2013-5-9,46.9,35.8,28.2,33.3,29.3,23.9,96,79,43,30.23,30.09,15,2,15,0.25
2013-5-10,50.2,37.4,25.1,34.0,27.3,22.4,92,69,38,30.37,30.21,28,4,28,0.00
2013-5-11,57.4,41.6,26.3,34.6,26.4,19.3,91,60,25,30.44,30.25,24,5,24,0.00
2013-5-12,62.1,46.2,31.9,34.9,30.2,26.0,88,58,27,30.30,30.12,24,6,24,0.00
2013-5-13,68.5,49.6,31.5,37.4,31.5,23.0,88,56,19,30.23,30.04,22,4,22,0.00
2013-5-14,69.0,49.1,32.3,39.0,33.4,27.4,92,60,24,30.08,29.84,24,4,24,0.01
2013-5-15,64.8,45.8,32.9,42.5,35.8,30.0,93,72,30,29.94,29.79,19,3,20,0.04
2013-5-16,65.2,47.9,30.9,42.7,30.5,21.7,96,59,21,29.93,29.78,24,4,24,0.01
2013-5-17,67.5,49.1,31.5,33.5,23.5,12.2,83,45,13,29.88,29.71,27,5,27,0.00
2013-5-18,57.4,40.5,31.7,36.5,29.5,23.1,92,67,30,29.89,29.71,36,5,36,0.11
2013-5-19,44.9,35.2,31.0,34.7,30.9,27.7,95,85,55,30.01,29.84,29,4,29,0.04
2013-5-20,50.4,35.7,25.2,37.0,30.1,23.0,95,82,45,30.11,29.98,30,5,30,0.08
2013-5-21,54.4,41.8,30.7,33.6,28.8,24.5,90,63,34,30.11,29.90,29,5,29,0.00
2013-5-22,65.7,47.3,29.2,34.2,26.5,16.6,90,52,17,29.93,29.74,24,4,24,0.00
2013-5-23,69.3,51.6,31.4,32.3,23.4,12.6,83,42,12,29.85,29.70,35,6,35,0.00
2013-5-24,66.5,51.5,33.3,27.3,21.1,14.0,64,34,15,29.90,29.78,29,6,29,0.00
2013-5-25,68.8,50.2,29.4,30.2,21.5,8.4,77,39,11,29.96,29.82,25,4,25,0.00
2013-5-26,68.6,51.0,31.7,28.7,22.5,11.8,79,39,14,29.91,29.76,24,4,24,0.00
2013-5-27,64.1,47.9,29.5,26.8,20.9,12.9,73,39,15,29.84,29.68,26,5,26,0.00
2013-5-28,61.2,45.9,29.8,31.9,25.1,16.2,80,48,19,29.76,29.56,28,4,28,0.00
2013-5-29,52.1,40.9,34.2,37.5,31.0,21.1,92,70,32,29.75,29.55,32,5,32,0.11
2013-5-30,53.6,44.9,35.2,30.2,21.9,15.5,71,42,24,29.86,29.73,35,10,35,0.00
2013-5-31,55.1,45.9,34.8,31.1,17.8,6.0,81,36,15,30.00,29.83,33,9,33,0.00
2013-6-1,60.6,45.7,29.1,28.9,21.0,12.7,69,40,19,30.13,30.00,21,6,21,0.00
2013-6-2,69.7,50.0,27.9,31.9,24.9,14.1,92,46,12,30.11,29.82,28,5,28,0.00
2013-6-3,70.0,51.8,32.0,38.3,29.1,19.5,81,48,17,29.91,29.71,33,6,33,0.01
2013-6-4,70.2,52.1,33.6,39.9,32.6,26.1,89,54,20,29.88,29.77,38,5,38,0.00
2013-6-5,67.9,52.8,34.8,38.4,29.0,20.1,83,46,17,29.87,29.78,30,6,30,0.00
2013-6-6,69.2,51.6,31.4,33.5,28.5,23.3,81,46,20,29.94,29.83,22,5,22,0.00
2013-6-7,67.4,52.3,37.1,39.0,33.0,27.1,86,52,24,29.94,29.75,33,6,34,0.00
2013-6-8,71.3,54.4,35.4,41.0,33.6,28.0,88,51,21,29.83,29.74,26,7,26,0.00
2013-6-9,76.3,57.2,36.4,39.1,32.7,26.2,77,46,16,29.91,29.81,26,6,26,0.00
2013-6-10,80.1,59.2,36.8,41.3,32.4,22.6,82,44,13,29.88,29.72,30,5,30,0.00
2013-6-11,73.7,58.2,41.8,38.6,26.4,14.2,73,35,13,29.91,29.73,41,6,41,0.00
2013-6-12,76.4,56.0,35.1,37.0,28.8,21.2,76,41,15,30.00,29.88,24,4,24,0.00
2013-6-13,75.7,57.8,39.7,44.6,32.8,25.4,79,44,17,29.97,29.77,44,5,44,0.00
2013-6-14,73.3,57.8,39.3,44.0,30.2,15.4,86,42,12,29.82,29.68,28,5,28,0.00
2013-6-15,70.2,52.5,32.1,37.3,28.6,22.3,75,44,19,30.00,29.79,38,5,38,0.00
2013-6-16,69.2,51.3,36.2,45.8,37.8,31.0,87,62,30,30.03,29.92,31,5,31,0.04
2013-6-17,73.1,52.9,36.0,43.9,35.5,25.8,95,59,18,30.05,29.89,24,4,29,0.00
2013-6-18,72.3,54.0,35.7,44.0,33.0,20.9,89,51,20,29.98,29.72,26,4,26,0.00
2013-6-19,74.7,55.7,32.5,33.7,20.1,5.5,75,32,8,29.81,29.66,39,6,39,0.00
2013-6-20,73.4,55.6,33.7,32.3,23.4,15.8,72,33,13,29.78,29.70,27,5,27,0.00
2013-6-21,72.4,54.9,33.4,35.4,25.5,17.8,77,38,14,29.84,29.72,34,5,34,0.00
2013-6-22,71.3,53.8,33.8,36.6,25.4,15.0,75,39,13,29.82,29.71,26,5,26,0.00
2013-6-23,71.2,51.9,31.1,40.3,29.4,21.5,80,47,17,29.86,29.70,22,3,22,0.00
2013-6-24,71.0,54.2,33.6,37.2,24.4,14.5,85,40,13,29.82,29.74,34,6,34,0.00
2013-6-25,71.1,58.3,42.7,36.7,29.1,17.6,62,34,22,29.89,29.75,22,5,22,0.00
2013-6-26,78.5,57.8,35.6,41.2,34.4,30.2,87,48,19,30.02,29.89,17,4,17,0.00
2013-6-27,84.0,63.6,40.7,43.3,35.3,24.8,78,42,12,30.07,29.91,21,4,21,0.00
2013-6-28,83.2,63.3,43.9,46.9,39.3,29.1,79,46,15,30.01,29.82,19,4,22,0.00
2013-6-29,79.3,59.8,45.1,48.9,42.3,37.4,85,56,23,29.96,29.78,30,6,30,0.00
2013-6-30,77.6,58.0,40.3,49.6,41.8,35.1,95,60,24,29.99,29.83,24,5,28,0.00
2013-7-1,76.7,58.5,38.6,47.0,37.3,29.9,95,53,19,30.03,29.87,26,6,26,0.00
2013-7-2,75.5,58.1,40.9,45.0,37.5,32.1,86,51,22,29.97,29.79,23,6,23,0.00
2013-7-3,76.6,55.2,36.7,43.0,36.3,27.9,86,54,19,29.92,29.76,36,5,36,0.00
2013-7-4,78.2,60.9,43.2,45.8,40.2,33.0,83,51,23,29.87,29.66,19,4,19,0.00
2013-7-5,75.3,62.1,49.8,52.1,45.2,40.6,88,57,31,29.70,29.57,24,4,24,0.01
2013-7-6,76.7,63.2,48.4,48.4,43.9,40.2,80,52,29,29.76,29.61,23,5,23,0.00
2013-7-7,78.7,61.8,45.6,50.9,44.6,38.7,91,58,26,29.86,29.65,32,4,32,0.00
2013-7-8,77.0,60.0,42.8,50.6,42.0,30.9,95,58,20,29.97,29.85,25,4,31,0.00
2013-7-9,80.0,61.5,42.5,45.7,36.5,25.9,81,46,16,30.05,29.90,20,4,20,0.00
2013-7-10,83.3,64.5,47.8,49.6,41.2,31.5,83,47,17,29.96,29.72,19,4,19,0.00
2013-7-11,83.0,61.6,43.8,49.7,44.0,38.3,88,56,21,29.86,29.65,30,4,30,0.00
2013-7-12,75.2,58.7,47.9,53.4,48.4,43.4,92,71,37,29.88,29.71,28,4,28,0.05
2013-7-13,76.7,57.5,47.7,55.2,49.5,43.9,95,78,33,29.98,29.87,22,3,22,0.12
2013-7-14,75.8,58.2,46.1,56.3,49.5,43.8,97,76,36,30.00,29.82,29,3,29,0.12
2013-7-15,70.0,57.3,44.0,55.2,49.8,42.4,96,78,53,29.95,29.76,28,3,28,0.45
2013-7-16,72.7,56.5,44.8,56.1,50.1,43.4,100,81,48,29.99,29.84,17,4,17,0.01
2013-7-17,76.6,57.3,43.2,57.2,49.6,40.8,94,78,40,30.06,29.90,15,3,15,0.01
2013-7-18,72.5,55.8,45.7,55.0,49.1,44.0,97,80,47,30.04,29.85,23,4,23,0.15
2013-7-19,72.5,55.9,42.4,53.8,47.2,40.8,97,76,39,30.03,29.89,22,3,22,0.01
2013-7-20,78.6,59.2,41.5,54.8,41.8,29.4,97,61,19,29.96,29.72,22,4,22,0.00
2013-7-21,80.0,60.1,41.0,48.0,37.0,26.0,87,49,15,29.84,29.72,19,3,19,0.00
2013-7-22,81.5,61.0,41.5,49.3,36.0,22.5,85,46,15,29.87,29.73,20,4,20,0.00
2013-7-23,83.2,61.3,39.1,42.1,33.9,25.2,82,42,14,29.92,29.77,21,4,23,0.00
2013-7-24,67.3,55.5,46.6,49.0,43.5,38.8,81,65,42,29.98,29.83,29,3,29,0.01
2013-7-25,72.3,58.7,48.0,53.8,46.1,40.1,95,67,32,30.00,29.88,22,4,22,0.09
2013-7-26,79.2,59.4,42.3,50.4,40.1,31.0,95,57,19,30.05,29.89,21,5,21,0.00
2013-7-27,77.1,55.2,41.2,49.5,43.9,37.6,95,71,27,29.98,29.73,29,4,29,0.53
2013-7-28,64.3,53.4,49.5,53.2,49.1,43.9,97,87,51,29.87,29.75,17,2,17,0.72
2013-7-29,67.8,54.2,42.4,49.5,45.9,38.4,95,76,44,30.08,29.85,27,4,27,0.20
2013-7-30,69.2,53.2,39.7,51.8,42.8,38.1,97,72,33,30.20,30.07,23,3,23,0.01
2013-7-31,74.3,55.9,38.4,49.7,40.6,35.6,95,62,26,30.25,30.02,18,3,18,0.00
2013-8-1,58.3,50.2,42.6,51.4,45.6,37.5,94,84,66,30.08,29.99,11,2,11,0.35
2013-8-2,72.1,58.3,45.7,54.5,46.6,37.1,96,70,29,30.05,29.86,18,4,18,0.00
2013-8-3,71.8,54.2,43.7,53.5,46.3,41.2,96,77,43,30.08,29.87,21,3,21,0.08
2013-8-4,72.8,52.8,38.6,53.7,45.1,37.4,98,78,37,30.15,30.00,22,3,22,0.01
2013-8-5,67.2,54.2,43.3,53.2,46.6,41.7,97,77,48,30.08,29.90,22,3,22,0.01
2013-8-6,68.4,50.8,42.1,55.2,45.7,40.5,97,84,47,30.02,29.90,17,2,17,0.08
2013-8-7,60.1,48.8,43.4,48.6,44.6,41.9,96,86,56,30.06,29.96,10,2,10,0.17
2013-8-8,64.8,51.2,43.9,50.1,43.8,37.1,97,78,40,30.06,29.91,23,3,24,0.00
2013-8-9,68.7,51.5,38.0,46.4,40.3,34.4,96,70,33,30.12,29.99,21,3,21,0.01
2013-8-10,68.1,51.0,35.4,46.3,39.9,32.4,95,70,28,30.17,30.04,27,3,27,0.00
2013-8-11,69.8,50.2,35.8,51.5,40.8,34.2,97,74,35,30.19,30.02,19,3,19,0.29
2013-8-12,64.1,48.9,38.8,47.8,41.1,36.3,95,77,39,30.17,30.04,24,3,24,0.10
2013-8-13,67.0,49.4,32.9,47.7,38.7,31.7,97,71,37,30.22,30.08,30,4,30,0.01
2013-8-14,70.0,50.9,34.9,46.9,36.5,28.8,95,64,22,30.17,30.02,27,4,29,0.00
2013-8-15,72.6,52.5,34.3,46.5,35.8,29.8,91,59,21,30.17,30.04,30,4,30,0.00
2013-8-16,76.5,55.6,35.8,43.5,35.0,26.3,89,53,18,30.14,29.98,19,3,19,0.00
2013-8-17,76.5,56.9,38.5,45.0,37.1,29.7,84,53,20,30.08,29.90,16,3,16,0.00
2013-8-18,75.5,54.4,42.6,50.3,44.0,38.7,92,71,29,30.06,29.88,22,3,22,0.07
2013-8-19,77.3,56.5,38.8,52.3,43.2,37.0,96,66,26,30.11,29.91,18,3,18,0.02
2013-8-20,77.9,55.8,41.0,51.6,44.1,38.0,94,69,27,30.01,29.82,27,4,27,0.04
2013-8-21,77.3,55.3,40.9,51.5,44.8,38.4,95,72,28,30.04,29.88,25,4,25,0.01
2013-8-22,75.2,58.2,45.4,50.2,46.3,40.8,94,69,31,30.05,29.86,22,3,22,0.00
2013-8-23,71.3,55.5,41.5,50.9,44.8,35.8,96,71,30,29.95,29.80,22,4,22,0.00
2013-8-24,66.8,52.8,42.7,50.5,44.7,39.1,93,76,40,30.04,29.89,22,2,22,0.00
2013-8-25,66.5,55.9,46.4,53.4,48.5,44.0,95,77,56,30.07,29.96,17,2,17,0.00
2013-8-26,72.2,59.1,49.6,52.6,50.0,45.7,94,74,43,30.04,29.88,19,4,19,0.01
2013-8-27,77.5,58.4,42.0,53.3,44.9,35.8,97,67,23,30.02,29.83,22,3,22,0.00
2013-8-28,79.6,58.2,43.6,52.9,45.9,37.0,96,69,22,29.98,29.82,13,2,17,0.03
2013-8-29,78.5,58.4,42.2,54.0,45.7,38.1,95,68,29,30.08,29.91,25,4,25,0.13
2013-8-30,76.7,57.6,48.4,53.2,48.3,40.8,94,75,29,30.06,29.90,29,3,29,0.02
2013-8-31,73.9,56.8,44.1,54.6,48.9,41.6,94,77,41,29.98,29.85,20,3,20,0.29
2013-9-1,72.5,55.9,43.3,57.6,47.2,42.0,97,76,38,30.00,29.85,20,3,20,0.07
2013-9-2,75.2,58.2,44.8,52.1,45.4,39.7,96,67,33,30.03,29.86,15,3,16,0.00
2013-9-3,78.6,59.0,43.2,51.0,44.3,38.6,94,63,29,30.02,29.88,20,3,20,0.00
2013-9-4,78.0,58.3,46.5,52.6,47.7,41.2,92,72,28,30.03,29.91,18,2,18,0.05
2013-9-5,78.3,59.6,43.0,52.3,46.1,40.3,96,66,28,30.09,29.90,16,3,16,0.00
2013-9-6,80.8,58.2,42.8,53.0,44.7,38.8,96,66,23,30.03,29.84,30,4,30,0.09
2013-9-7,78.5,57.6,40.8,49.0,41.9,33.6,97,62,20,30.01,29.83,29,3,29,0.00
2013-9-8,75.8,57.2,43.8,48.0,44.2,36.3,92,66,25,29.92,29.71,24,4,24,0.01
2013-9-9,60.2,51.2,41.7,51.5,46.6,39.8,96,85,63,29.86,29.76,17,3,17,0.02
2013-9-10,62.7,53.0,47.8,52.2,47.9,43.5,97,84,53,29.93,29.83,33,3,33,0.10
2013-9-11,65.3,54.0,47.6,51.2,48.0,42.9,97,82,46,29.95,29.86,22,3,22,0.05
2013-9-12,65.9,52.4,43.2,51.4,46.9,41.5,96,83,53,30.02,29.82,25,2,25,0.49
2013-9-13,62.1,51.0,44.9,50.2,46.0,42.1,96,84,51,29.93,29.74,28,2,28,0.78
2013-9-14,56.6,48.9,42.4,48.9,44.7,39.9,96,86,67,29.92,29.81,21,4,21,0.19
2013-9-15,62.7,47.6,41.1,48.3,43.7,39.3,96,87,52,30.10,29.91,24,2,24,0.18
2013-9-16,63.9,48.7,39.0,50.3,42.0,37.8,97,80,40,30.13,29.99,17,2,17,0.01
2013-9-17,67.8,48.9,34.6,48.8,40.7,33.2,97,77,36,30.08,29.82,26,3,26,0.00
2013-9-18,61.9,46.3,40.0,48.7,41.9,37.8,99,86,45,29.95,29.77,26,4,26,0.69
2013-9-19,61.4,46.7,33.6,47.9,35.3,21.4,98,71,25,30.06,29.92,29,4,29,0.00
2013-9-20,66.2,44.9,27.5,35.0,28.2,19.1,94,59,18,30.17,30.03,21,4,21,0.01
2013-9-21,65.3,47.4,31.6,42.0,35.0,28.7,93,66,32,30.09,29.83,22,3,22,0.00
2013-9-22,46.4,42.5,35.0,42.6,39.9,33.5,95,90,77,29.84,29.62,15,4,15,0.99
2013-9-23,50.3,39.8,30.4,34.7,32.0,27.6,96,75,44,30.21,29.63,32,8,32,0.21
2013-9-24,62.9,40.8,23.7,36.0,26.6,11.9,95,66,14,30.33,30.04,22,2,22,0.01
2013-9-25,65.8,45.6,26.7,34.5,27.5,20.3,92,57,18,30.04,29.58,35,5,35,0.00
2013-9-26,64.3,48.4,31.0,35.4,25.8,16.8,85,47,18,29.69,29.53,39,8,39,0.00
2013-9-27,50.7,38.1,28.0,36.8,29.9,23.8,93,74,40,30.07,29.49,36,6,36,0.14
2013-9-28,28.7,24.5,19.0,26.5,20.7,15.8,93,85,77,30.32,30.07,9,3,9,0.00
2013-10-2,63.3,47.4,35.5,29.6,27.6,20.3,72,50,20,29.92,29.86,14,5,14,0.04
2013-10-3,60.0,43.0,26.4,35.9,26.5,20.7,89,57,24,29.91,29.60,31,6,31,0.02
2013-10-4,32.6,26.1,16.2,28.1,20.0,12.3,93,78,51,30.40,29.65,25,7,25,0.01
2013-10-5,45.7,29.6,16.6,23.2,16.6,2.0,86,63,19,30.54,30.39,27,6,27,0.02
2013-10-6,57.5,34.4,17.0,27.3,20.3,13.0,86,61,29,30.58,30.39,22,4,22,0.00
2013-10-7,65.6,41.0,22.2,28.8,23.2,18.7,88,56,18,30.42,30.10,19,3,19,0.00
2013-10-8,60.2,42.4,27.4,31.0,25.9,20.9,84,56,26,30.10,29.77,27,4,27,0.00
2013-10-9,57.8,42.9,27.8,31.6,23.7,16.0,88,52,22,29.87,29.76,27,5,27,0.00
2013-10-10,44.5,36.2,28.6,33.8,29.4,19.8,96,79,38,29.84,29.49,32,6,32,0.12
2013-10-11,40.7,32.7,28.6,31.8,29.0,26.5,97,87,65,30.19,29.78,22,4,22,0.22
2013-10-12,47.2,33.2,25.6,30.3,25.7,22.0,100,76,43,30.27,30.12,12,2,12,0.00
2013-10-13,55.9,37.8,23.0,34.4,26.7,20.0,92,69,31,30.26,29.92,36,5,36,0.02
2013-10-14,39.1,31.8,24.5,33.7,28.1,22.8,94,87,60,30.21,29.82,27,4,27,0.11
2013-10-15,36.8,28.2,21.8,29.4,23.6,17.8,95,84,57,30.27,30.17,19,4,19,0.00
2013-10-16,37.7,26.8,18.0,24.0,19.2,14.5,89,74,51,30.33,30.20,23,6,23,0.15
2013-10-17,42.6,28.1,15.2,22.5,16.3,11.3,89,65,29,30.36,30.15,24,4,24,0.03
2013-10-18,37.6,28.9,21.4,26.6,16.6,4.7,100,63,28,30.35,30.08,23,7,23,0.09
2013-10-19,47.2,29.1,13.8,20.8,16.1,10.2,92,62,30,30.44,30.26,20,4,20,0.00
2013-10-20,46.2,31.7,18.1,27.5,19.7,13.9,89,65,35,30.26,30.04,22,5,22,0.07
2013-10-21,47.2,32.3,18.2,26.7,20.6,8.7,94,67,27,30.37,30.14,21,4,21,0.06
2013-10-22,56.7,35.0,19.3,25.3,20.8,14.9,89,61,25,30.45,30.26,18,4,18,0.00
2013-10-23,58.1,36.4,20.8,26.0,19.9,13.8,89,58,18,30.34,30.18,20,3,20,0.00
2013-10-24,57.7,37.0,22.4,24.0,20.2,16.4,85,56,23,30.32,30.17,18,2,18,0.03
2013-10-25,47.4,35.1,25.2,32.6,25.9,20.0,90,71,44,30.33,30.18,17,3,17,2.03
2013-10-26,55.0,37.3,23.9,32.3,25.9,18.2,96,69,25,30.44,30.26,15,4,15,0.04
2013-10-27,50.7,34.4,20.7,28.4,22.7,17.4,91,66,31,30.29,29.96,17,3,17,0.06
2013-10-28,51.9,38.3,24.1,29.6,21.2,14.4,92,56,24,30.00,29.79,31,8,31,14.29
2013-10-29,43.2,35.9,26.5,29.8,22.9,15.7,95,63,36,29.87,29.71,44,7,44,6.29
2013-10-30,31.2,25.2,17.6,24.9,20.3,12.7,94,82,59,30.09,29.82,17,4,17,0.00
2013-10-31,30.0,25.9,19.6,23.3,19.8,12.8,91,78,65,30.24,30.08,18,6,18,0.04
2013-11-1,37.6,28.8,18.7,24.6,21.8,14.4,91,76,53,30.46,30.20,23,7,23,0.29
2013-11-2,52.6,27.1,11.2,20.4,14.7,4.4,89,65,15,30.58,30.20,19,2,19,0.01
2013-11-3,45.5,30.7,17.7,27.0,19.8,12.9,93,67,37,30.23,29.79,39,4,39,1.98
2013-11-4,37.3,26.6,13.2,25.5,18.7,9.1,91,73,48,30.07,29.90,16,2,16,0.01
2013-11-5,27.9,19.9,7.0,25.5,11.9,2.6,91,72,49,30.51,29.95,22,6,22,0.06
2013-11-6,32.7,17.1,2.9,19.7,9.9,-1.2,92,74,53,30.85,30.51,18,3,18,0.02
2013-11-7,47.7,26.1,10.5,22.2,15.8,7.3,95,69,29,30.86,30.41,11,1,11,0.01
2013-11-8,47.8,31.5,17.4,23.1,17.0,12.8,86,60,28,30.41,30.15,28,5,28,0.40
2013-11-9,51.1,31.3,18.7,23.1,17.6,12.8,86,61,22,30.42,30.28,14,2,14,0.00
2013-11-10,52.2,31.2,17.6,21.7,16.9,11.4,84,60,24,30.50,30.36,18,3,18,0.00
2013-11-11,51.0,31.7,17.3,22.8,17.9,13.4,86,61,25,30.62,30.45,21,3,21,0.01
2013-11-12,54.6,32.3,18.3,22.0,14.6,5.7,84,55,15,30.72,30.55,14,2,14,0.01
2013-11-13,49.1,31.4,15.9,21.4,15.5,9.9,80,55,25,30.61,30.22,16,2,16,0.02
2013-11-14,45.7,32.1,19.0,25.3,18.2,8.4,92,60,23,30.22,29.94,17,4,17,0.00
2013-11-15,40.4,27.4,15.7,28.5,20.6,10.2,94,77,38,29.94,29.70,31,3,31,0.32
2013-11-16,31.1,26.9,24.0,26.6,24.0,21.1,95,89,67,29.74,29.59,58,6,58,1.27
2013-11-17,35.9,26.6,12.7,23.9,18.7,9.6,94,73,51,30.39,29.73,44,7,44,1.59
2013-11-18,29.7,16.4,5.6,21.0,11.8,2.6,92,82,66,30.63,30.38,12,2,12,0.01
2013-11-19,32.0,20.9,6.4,28.1,16.7,3.0,94,84,65,30.57,30.19,12,1,12,0.01
2013-11-20,38.7,29.3,23.6,28.9,25.9,22.1,95,88,60,30.19,29.93,10,1,10,0.00
2013-11-21,33.4,29.1,26.4,30.5,27.4,24.8,96,94,84,30.26,29.95,10,1,10,0.00
2013-11-22,32.3,27.7,24.4,30.0,25.9,22.4,95,93,89,30.42,30.25,7,1,7,0.00
2013-11-23,32.0,27.4,23.0,27.7,25.0,21.3,95,91,79,30.46,30.29,5,0,5,0.00
2013-11-24,31.7,27.0,22.5,26.9,24.4,20.8,100,90,68,30.29,30.02,23,2,23,0.00
2013-11-25,31.7,20.4,11.5,22.1,16.2,8.1,93,84,56,30.55,30.03,25,3,25,0.00
2013-11-26,22.0,12.3,3.2,17.9,9.1,-0.3,92,87,81,30.83,30.55,12,1,12,0.00
2013-11-27,25.2,12.3,1.8,16.9,8.3,-1.3,100,84,69,30.84,30.64,10,1,10,0.00
2013-11-28,33.7,18.4,7.7,21.4,12.4,4.2,91,78,54,30.67,30.50,14,1,14,0.00
2013-11-29,29.2,17.0,5.3,19.8,11.2,1.2,90,78,65,30.69,30.57,13,2,13,0.00
2013-11-30,28.6,14.4,1.9,18.4,9.2,-2.7,97,80,63,30.76,30.61,14,1,14,0.00
2013-12-1,33.2,18.9,3.1,21.1,11.6,-0.0,100,74,58,30.74,30.46,23,5,23,0.00
2013-12-2,36.9,32.6,27.7,22.8,19.9,15.5,77,60,46,30.47,29.75,21,6,21,0.05
2013-12-3,34.3,28.5,23.3,27.2,21.5,14.3,96,76,51,29.76,29.41,20,3,20,0.05
2013-12-4,28.5,15.9,-8.1,27.5,13.3,-12.8,96,89,79,30.07,29.32,35,8,35,0.00
2013-12-5,11.6,-5.7,-19.8,1.1,-10.6,-24.3,86,79,51,30.53,30.06,14,1,14,0.00
2013-12-6,10.8,-2.0,-6.7,2.0,-6.9,-11.6,85,79,63,30.67,30.51,21,2,21,0.00
2013-12-7,15.4,7.1,-4.1,11.2,3.9,-8.4,90,86,78,30.66,29.99,4,0,4,0.00
2013-12-8,12.8,6.1,-3.8,10.6,2.5,-7.5,92,85,76,30.32,29.90,21,4,21,0.00
2013-12-9,3.7,-5.7,-17.9,-3.4,-10.9,-22.5,85,78,61,31.09,30.32,22,3,22,0.00
2013-12-10,9.3,-6.9,-21.3,-3.0,-13.5,-26.1,84,73,48,31.20,31.06,10,1,10,0.00
2013-12-11,13.8,3.9,-2.0,6.4,-0.5,-6.2,89,82,63,31.12,31.02,14,1,14,0.00
2013-12-12,15.8,3.0,-6.6,8.0,-1.2,-11.3,90,82,67,31.14,30.76,12,1,12,0.00
2013-12-13,22.9,8.3,-5.1,14.0,3.2,-9.5,89,80,63,30.76,30.53,13,1,13,0.00
2013-12-14,16.2,8.0,0.1,9.4,3.4,-4.9,89,81,72,30.90,30.63,17,3,17,0.00
2013-12-15,24.7,11.0,0.1,16.1,6.1,-4.2,100,81,58,30.99,30.88,9,1,9,0.00
2013-12-16,29.8,15.4,3.3,17.2,9.3,-0.9,100,77,50,30.89,30.77,15,2,15,0.00
2013-12-17,30.1,15.1,3.8,17.4,9.0,0.6,90,77,56,30.95,30.75,10,1,10,0.01
2013-12-18,25.4,14.6,5.8,15.3,8.8,1.9,92,78,62,30.75,30.25,10,1,10,0.00
2013-12-19,39.2,25.0,14.5,22.9,17.6,11.9,93,76,38,30.26,29.84,25,5,25,0.07
2013-12-20,29.2,21.7,9.7,26.5,19.7,6.7,100,92,86,29.84,29.73,15,2,15,0.00
2013-12-21,21.5,10.6,-1.9,15.8,5.8,-5.6,100,81,68,30.23,29.80,17,5,17,0.00
2013-12-22,19.4,9.4,-4.7,12.6,3.4,-8.2,89,77,53,30.67,30.23,17,3,17,0.00
2013-12-23,28.0,19.2,13.0,16.5,12.9,8.3,89,77,59,30.73,30.60,22,6,22,0.12
2013-12-24,32.7,16.7,-1.8,23.7,11.1,-6.7,91,79,55,30.69,30.39,32,6,32,0.54
2013-12-25,17.1,2.4,-12.0,3.5,-4.0,-16.8,91,75,50,31.12,30.68,13,2,13,0.00
2013-12-26,17.4,4.6,-7.3,7.6,-0.8,-12.3,90,78,62,31.11,30.94,11,1,11,0.00
2013-12-27,20.6,9.7,0.2,13.1,5.5,-3.2,90,83,71,31.05,30.73,8,0,8,0.00
2013-12-28,20.7,12.1,2.3,14.7,8.4,-1.1,90,85,73,30.73,30.37,12,1,12,0.00
2013-12-29,25.2,13.9,1.0,13.9,7.3,-4.4,90,75,50,30.53,30.36,15,4,15,0.03
2013-12-30,30.5,15.9,1.4,13.6,6.2,-2.7,88,67,42,30.69,30.51,18,4,18,0.00
2013-12-31,31.2,17.5,3.5,21.7,12.2,-0.3,92,80,63,30.69,30.42,12,2,12,0.00
2014-1-1,26.9,21.7,5.3,23.2,13.2,-1.4,93,70,50,30.55,30.26,23,7,23,0.04
2014-1-2,20.6,8.3,-2.3,7.1,0.8,-5.7,87,72,53,30.81,30.55,11,1,11,0.00